Regional Weather Roundup
Issued by NWS Columbia, SC

Home | Current Version | Previous Version | Text Only | Print | Product List | Glossary On
Versions: 1 2 3 4 5 6 7 8 9 10 11 12 13 14 15 16 17 18 19 20 21 22 23 24 25 26 27 28 29 30 31 32 33 34 35 36 37 38 39 40 41 42 43 44 45 46 47 48 49 50
318
ASUS42 KCAE 100710
RWRCAE
REGIONAL WEATHER ROUNDUP
NATIONAL WEATHER SERVICE COLUMBIA SC
200 AM EST WED FEB 10 2016

NOTE: "FAIR" INDICATES FEW OR NO CLOUDS BELOW 12,000 FEET WITH NO
SIGNIFICANT WEATHER AND/OR OBSTRUCTIONS TO VISIBILITY.

NOT ALL STATIONS ARE QUALITY CONTROLLED BY THE NATIONAL
WEATHER SERVICE. USE DATA WITH CAUTION...ESPECIALLY
DEWPOINT OBSERVATIONS.

SCZ001>056-GAZ040-063>065-077-100800-
...UPSTATE SOUTH CAROLINA...

CITY           SKY/WX    TMP DP  RH WIND       PRES   REMARKS
ANDERSON       CLEAR     25  12  58 W15       29.92S WCI  13
LIBERTY        SUNNY     24  14  65 SW8       29.88S WCI  15
SPARTANBURG    CLEAR     25  14  63 W5        29.87F WCI  19
CLEMSON        CLEAR     26  12  55 W17       29.92R WCI  13
GREENVILLE     CLEAR     26  15  63 W7        29.88S WCI  18
GREENWOOD      CLEAR     27  11  51 W9        29.93S WCI  18
GREER          CLEAR     25  15  66 VRB3      29.87S
ROCK HILL      CLEAR     23  13  65 CALM      29.88S
CHESTER        SUNNY     27  14  59 CALM      29.89S
LAURENS        SUNNY     28  19  69 W6        29.90S WCI  22


...CENTRAL SOUTH CAROLINA...

CITY           SKY/WX    TMP DP  RH WIND       PRES   REMARKS
COLUMBIA APT   PTCLDY    30  17  58 W10       29.93S WCI  21
COLUMBIA OWENS CLEAR     31  18  58 W8        29.94S WCI  23
MCENTIRE ANGB  CLEAR     29  19  65 W8        29.93S WCI  21
ORANGEBURG     PTCLDY    31  17  56 W9        29.95S WCI  23
SUMTER SHAW    PTCLDY    30  20  65 W9        29.90S WCI  22
NEWBERRY       SUNNY     28  19  69 W8        29.94S WCI  20
AIKEN          FAIR      28  16  59 W9        29.97F WCI  20
BARNWELL       FAIR      32  18  55 W9        29.98S WCI  24
MANNING        FAIR      32  19  59 W7        29.95S WCI  26
CAMDEN         CLOUDY    32  32 100 W10       29.91F WCI  24
LANCASTER      SUNNY     27  14  59 CALM      29.90S
WINNSBORO      SUNNY     30  23  74 W3        29.90S


...EASTERN AND COASTAL SOUTH CAROLINA...

CITY           SKY/WX    TMP DP  RH WIND       PRES   REMARKS
MYRTLE BEACH   PTCLDY    36  19  51 W9G17     29.93S WCI  29
N MYRTLE BCH   MOCLDY    36  24  62 W10       29.90R WCI  28
CONWAY         PTSUNNY   34  25  69 W3        29.91S
MARION         CLOUDY    36  27  69 W8        29.90S WCI  29
HARTSVILLE     CLOUDY    32  18  55 CALM      29.89S
FLORENCE       CLOUDY    34  24  67 W8        29.90S WCI  27
DARLINGTON     CLOUDY    34  16  47 NW7       29.91S WCI  28
CHARLESTON APT CLEAR     34  18  52 W10       29.97S WCI  26
MOUNT PLEASANT FAIR      36  21  55 W9G16     29.97S WCI  29
WALTERBORO     SUNNY     34  19  55 W9        29.99S WCI  26
BEAUFORT       CLEAR     34  19  54 W10G20    30.01S WCI  26


...EASTERN GEORGIA...

CITY           SKY/WX    TMP DP  RH WIND       PRES   REMARKS
AUGUSTA BUSH F CLEAR     29  15  56 W10       29.99S WCI  20
AUGUSTA DANIEL PTCLDY    30  13  49 VRB7      29.98R WCI  23
THOMSON        CLEAR     30  21  68 W7        30.03S WCI  24
WASHINGTON     FAIR      32  21  64 W12G22    29.97R WCI  23
CLAXTON        FAIR      32  25  76 SW5       30.05S WCI  28
SYLVANIA       SUNNY     33  24  70 W8        30.02S WCI  26
STATESBORO     CLEAR     35  19  51 W9        30.03S WCI  28
SAVANNAH       PTCLDY    30  20  66 W6        30.04S WCI  24


...SOUTHERN NORTH CAROLINA...

CITY           SKY/WX    TMP DP  RH WIND       PRES   REMARKS
CHARLOTTE      CLEAR     25  13  60 CALM      29.87S
MONROE         CLEAR     24  13  62 SW3       29.86S
WADESBORO      MOSUNNY   28  13  55 CALM      29.89R
ROCKINGHAM     MOSUNNY   27  14  58 CALM      29.88S
RUTHERFORDTON  PTCLDY    24  11  59 CALM      29.85S
ASHEVILLE      FLURRIES  20  14  77 N18G25    29.81S WCI   5

$$




USA.gov is the U.S. government's official web portal to all federal, state and local government web resources and services.